Stündliche Wetter Kyyanivka

Heute, 18 Mai, Dienstag

Zeit Temperatur Niederschläge Wind Luftdruck Luftfeuchtigkeit
00:00 +13°C° 0 mm 1 m/S 723 mmHg 89%
01:00 +13°C° 0 mm 1 m/S 723 mmHg 90%
02:00 +12°C° 0 mm 1 m/S 723 mmHg 92%
03:00 +12°C° 0 mm 2 m/S 722 mmHg 93%
04:00 +12°C° 0 mm 2 m/S 722 mmHg 93%
05:00 +12°C° 0 mm 2 m/S 722 mmHg 94%
06:00 +13°C° 0.1 mm 2 m/S 722 mmHg 90%
07:00 +14°C° 0.1 mm 2 m/S 722 mmHg 86%
08:00 +16°C° 0.1 mm 3 m/S 722 mmHg 83%
09:00 +17°C° 1.1 mm 2 m/S 722 mmHg 78%
10:00 +17°C° 1.1 mm 2 m/S 722 mmHg 73%
11:00 +18°C° 1.1 mm 2 m/S 721 mmHg 68%
12:00 +18°C° 1.2 mm 2 m/S 721 mmHg 68%
13:00 +19°C° 1.2 mm 2 m/S 721 mmHg 68%
14:00 +19°C° 1.2 mm 2 m/S 721 mmHg 67%
15:00 +18°C° 1.5 mm 2 m/S 721 mmHg 73%
16:00 +17°C° 1.5 mm 2 m/S 721 mmHg 78%
17:00 +16°C° 1.5 mm 2 m/S 721 mmHg 83%
18:00 +14°C° 0.8 mm 3 m/S 720 mmHg 86%
19:00 +13°C° 0.8 mm 4 m/S 720 mmHg 90%
20:00 +13°C° 0.8 mm 5 m/S 720 mmHg 93%
21:00 +11°C° 0.6 mm 6 m/S 720 mmHg 93%
22:00 +11°C° 0.6 mm 6 m/S 720 mmHg 94%
23:00 +11°C° 0.6 mm 7 m/S 721 mmHg 95%

Morgen, 19 Mai, Mittwoch

Zeit Temperatur Niederschläge Wind Luftdruck Luftfeuchtigkeit
00:00 +11°C° 1.9 mm 7 m/S 721 mmHg 95%
01:00 +11°C° 1.9 mm 7 m/S 721 mmHg 96%
02:00 +11°C° 1.9 mm 8 m/S 721 mmHg 96%
03:00 +11°C° 1.8 mm 9 m/S 721 mmHg 95%
04:00 +10°C° 1.8 mm 9 m/S 722 mmHg 94%
05:00 +9°C° 1.8 mm 10 m/S 722 mmHg 93%
06:00 +10°C° 2.4 mm 9 m/S 723 mmHg 93%
07:00 +10°C° 2.4 mm 9 m/S 723 mmHg 92%
08:00 +10°C° 2.4 mm 8 m/S 724 mmHg 92%
09:00 +10°C° 0.6 mm 8 m/S 725 mmHg 90%
10:00 +10°C° 0.6 mm 8 m/S 725 mmHg 88%
11:00 +11°C° 0.6 mm 7 m/S 726 mmHg 87%
12:00 +12°C° 0.4 mm 7 m/S 726 mmHg 84%
13:00 +12°C° 0.4 mm 8 m/S 727 mmHg 82%
14:00 +13°C° 0.4 mm 8 m/S 727 mmHg 79%
15:00 +12°C° 0.3 mm 7 m/S 727 mmHg 80%
16:00 +13°C° 0.3 mm 6 m/S 727 mmHg 80%
17:00 +13°C° 0.3 mm 6 m/S 728 mmHg 81%
18:00 +12°C° 0 mm 5 m/S 728 mmHg 84%
19:00 +11°C° 0 mm 4 m/S 728 mmHg 87%
20:00 +10°C° 0 mm 3 m/S 728 mmHg 91%
21:00 +10°C° 0 mm 3 m/S 728 mmHg 92%
22:00 +9°C° 0 mm 3 m/S 728 mmHg 93%
23:00 +8°C° 0 mm 2 m/S 729 mmHg 94%

übermorgen, 20 Mai, Donnerstag

Zeit Temperatur Niederschläge Wind Luftdruck Luftfeuchtigkeit
00:00 +8°C° 0 mm 2 m/S 728 mmHg 94%
01:00 +7°C° 0 mm 2 m/S 728 mmHg 94%
02:00 +7°C° 0 mm 2 m/S 728 mmHg 94%
03:00 +7°C° 0 mm 2 m/S 728 mmHg 94%
04:00 +7°C° 0 mm 2 m/S 728 mmHg 94%
05:00 +8°C° 0 mm 1 m/S 728 mmHg 94%
06:00 +9°C° 0 mm 2 m/S 728 mmHg 90%
07:00 +10°C° 0 mm 2 m/S 729 mmHg 86%
08:00 +13°C° 0 mm 2 m/S 729 mmHg 82%
09:00 +14°C° 0.1 mm 2 m/S 729 mmHg 78%
10:00 +14°C° 0.1 mm 1 m/S 729 mmHg 75%
11:00 +15°C° 0.1 mm 1 m/S 729 mmHg 71%
12:00 +16°C° 0.4 mm 1 m/S 728 mmHg 70%
13:00 +16°C° 0.4 mm 2 m/S 728 mmHg 69%
14:00 +16°C° 0.4 mm 2 m/S 728 mmHg 68%
15:00 +16°C° 0.5 mm 2 m/S 728 mmHg 72%
16:00 +14°C° 0.5 mm 3 m/S 728 mmHg 75%
17:00 +14°C° 0.5 mm 3 m/S 728 mmHg 79%
18:00 +14°C° 0.9 mm 2 m/S 728 mmHg 84%
19:00 +13°C° 0.9 mm 2 m/S 728 mmHg 89%
20:00 +12°C° 0.9 mm 1 m/S 728 mmHg 94%
21:00 +12°C° 0.9 mm 1 m/S 728 mmHg 95%
22:00 +10°C° 0.9 mm 2 m/S 728 mmHg 96%
23:00 +10°C° 0.9 mm 3 m/S 728 mmHg 97%

21 Mai, Freitag

Zeit Temperatur Niederschläge Wind Luftdruck Luftfeuchtigkeit
00:00 +10°C° 2.5 mm 3 m/S 728 mmHg 97%
01:00 +10°C° 2.5 mm 4 m/S 729 mmHg 97%
02:00 +9°C° 2.5 mm 5 m/S 729 mmHg 97%
03:00 +9°C° 3 mm 5 m/S 729 mmHg 96%
04:00 +9°C° 3 mm 5 m/S 729 mmHg 96%
05:00 +9°C° 3 mm 5 m/S 729 mmHg 95%
06:00 +9°C° 1.5 mm 5 m/S 730 mmHg 95%
07:00 +9°C° 1.5 mm 5 m/S 730 mmHg 95%
08:00 +9°C° 1.5 mm 5 m/S 731 mmHg 94%
09:00 +10°C° 0.6 mm 5 m/S 731 mmHg 91%
10:00 +11°C° 0.6 mm 4 m/S 731 mmHg 88%
11:00 +12°C° 0.6 mm 4 m/S 732 mmHg 85%
12:00 +13°C° 0.1 mm 4 m/S 732 mmHg 82%
13:00 +13°C° 0.1 mm 5 m/S 732 mmHg 78%
14:00 +14°C° 0.1 mm 5 m/S 732 mmHg 75%
15:00 +14°C° 0.2 mm 5 m/S 732 mmHg 75%
16:00 +14°C° 0.2 mm 4 m/S 732 mmHg 76%
17:00 +14°C° 0.2 mm 4 m/S 732 mmHg 76%
18:00 +13°C° 0.1 mm 4 m/S 733 mmHg 81%
19:00 +12°C° 0.1 mm 3 m/S 733 mmHg 86%
20:00 +10°C° 0.1 mm 3 m/S 733 mmHg 90%
21:00 +10°C° 0 mm 3 m/S 733 mmHg 91%
22:00 +9°C° 0 mm 2 m/S 733 mmHg 92%
23:00 +9°C° 0 mm 2 m/S 733 mmHg 92%

22 Mai, Samstag

Zeit Temperatur Niederschläge Wind Luftdruck Luftfeuchtigkeit
00:00 +8°C° 0 mm 2 m/S 733 mmHg 92%
01:00 +8°C° 0 mm 2 m/S 733 mmHg 93%
02:00 +8°C° 0 mm 2 m/S 733 mmHg 93%
03:00 +8°C° 0 mm 2 m/S 733 mmHg 93%
04:00 +8°C° 0 mm 2 m/S 733 mmHg 93%
05:00 +8°C° 0 mm 1 m/S 733 mmHg 93%
06:00 +9°C° 0 mm 2 m/S 734 mmHg 87%
07:00 +12°C° 0 mm 2 m/S 734 mmHg 82%
08:00 +14°C° 0 mm 2 m/S 734 mmHg 76%
09:00 +15°C° 0 mm 2 m/S 734 mmHg 71%
10:00 +16°C° 0 mm 2 m/S 733 mmHg 67%
11:00 +18°C° 0 mm 2 m/S 733 mmHg 62%
12:00 +18°C° 0 mm 2 m/S 733 mmHg 60%
13:00 +19°C° 0 mm 2 m/S 733 mmHg 59%
14:00 +20°C° 0 mm 2 m/S 733 mmHg 58%
15:00 +20°C° 0 mm 2 m/S 733 mmHg 59%
16:00 +20°C° 0 mm 2 m/S 732 mmHg 60%
17:00 +20°C° 0 mm 2 m/S 732 mmHg 62%
18:00 +18°C° 0 mm 3 m/S 732 mmHg 69%
19:00 +16°C° 0 mm 3 m/S 732 mmHg 77%
20:00 +13°C° 0 mm 3 m/S 732 mmHg 85%
21:00 +13°C° 0 mm 3 m/S 732 mmHg 86%
22:00 +12°C° 0 mm 3 m/S 732 mmHg 87%
23:00 +11°C° 0 mm 3 m/S 732 mmHg 89%

23 Mai, Sonntag

Zeit Temperatur Niederschläge Wind Luftdruck Luftfeuchtigkeit
00:00 +11°C° 0 mm 3 m/S 732 mmHg 89%
01:00 +11°C° 0 mm 3 m/S 732 mmHg 90%
02:00 +11°C° 0 mm 3 m/S 732 mmHg 91%
03:00 +11°C° 0 mm 3 m/S 731 mmHg 90%
04:00 +12°C° 0 mm 2 m/S 731 mmHg 89%
05:00 +12°C° 0 mm 2 m/S 731 mmHg 89%
06:00 +13°C° 0 mm 3 m/S 731 mmHg 84%
07:00 +14°C° 0 mm 3 m/S 731 mmHg 80%
08:00 +17°C° 0 mm 3 m/S 731 mmHg 75%
09:00 +19°C° 0 mm 3 m/S 732 mmHg 70%
10:00 +20°C° 0 mm 3 m/S 732 mmHg 66%
11:00 +22°C° 0 mm 3 m/S 732 mmHg 61%
12:00 +22°C° 0 mm 3 m/S 732 mmHg 58%
13:00 +24°C° 0 mm 3 m/S 732 mmHg 56%
14:00 +24°C° 0 mm 3 m/S 732 mmHg 53%
15:00 +22°C° 0.1 mm 3 m/S 732 mmHg 59%
16:00 +22°C° 0.1 mm 3 m/S 732 mmHg 64%
17:00 +21°C° 0.1 mm 3 m/S 732 mmHg 69%
18:00 +19°C° 1.3 mm 3 m/S 732 mmHg 78%
19:00 +17°C° 1.3 mm 3 m/S 732 mmHg 87%
20:00 +14°C° 1.3 mm 3 m/S 733 mmHg 95%
21:00 +14°C° 1.2 mm 3 m/S 733 mmHg 96%
22:00 +14°C° 1.2 mm 2 m/S 733 mmHg 96%
23:00 +14°C° 1.2 mm 2 m/S 733 mmHg 97%
Mehr zeigen

Wir brauchen deine Erlaubnis

Meteoprog und unser Service Anbieter werden persönliche Daten aufbewahren, so wie Cookies, Geräte Bezeichnung oder ähnliche Technologien von deinem Gerät und Prozess, so wie Persönliche Daten Inhalte und Werbungen, genauso wie social Media und den Verkehr zu analysieren.

  • Aufbewahrung und/oder Zugang zu deiner Geräte Informationen.

    Cookies, Geräte Bezeichnung oder andere Informationen, können aufbewahrt oder Zugang zu deinem Gerät erhalten, für den Grund, der oben angegeben wird.

  • Personalisierte Werbung und Inhalte, Messungen, Einblick in das Publikum und Produkt Entwicklung.

    Werbungen und Inhalte können personalisiert werden, basierend auf ein Profil. Mehr Daten können besser personalisierte Werbungen und Inhalte hinzufügen. Werbung und Inhalte können gezeigt und gemessen werden. Einblicke über das Publikum, welche die Werbung gesehen haben und den Inhalt, können abgeleitet werden. So wie Daten können genutzt werden, um es zu verbessern oder die Benutzer Erfahrung zu verbessern das System und die Software.

Wenn du “Ich stimme zu” klickst, erlaubst du uns, die Cookies zu benutzen die Geräte Bezeichnung, den Web oder ähnliche Technologien zu benutzen. Deine Settings, können in deinem Gerät bei deinem Browser geändert werden.

Für den bestimmten Zweck, berechtigten Interessen beruhen darauf, mehr als auf den Inhalt. Du kannst mehr darüber in unseren Privaten und Cookie Politik lesen.